HIMAWARI-8 (40267 NORAD) Tracking and Keplerian Element Data

This shows tracking and keplerian element data for the satellite.

Feedback or suggestion? Click here.




ElementValue
Catalog40267
NameHIMAWARI-8
Epoch Orbit1506
Epoch Day317.46334894
Epoch Year2018
RAAN98.2887
Inclination0.0387
Eccentricity9.02E-05
Argument of Perigee130.3498
Mean Anonmoly131.3813
Mean Motion1.0027386
Decay Rate-2.76E-06
L11 40267U 14060A 18317.46334894 -.00000276 00000-0 00000+0 0 9996
L22 40267 0.0387 98.2887 0000902 130.3498 131.3813 1.00273860 15069

Live tracking and technical data element details for HIMAWARI-8 (NORAD 40267). HIMAWARI-8 can be tracked NOW for your location showing map with azimuth and elevation plus other details from your city location.

Track the satellite on the map from your city or location and see movement details for azimuth, elevation, latitude, longitude, range, height, and movement on the map or in text.







IsCatalogInMostPopularTable: catalog: 40267, numindb: 115
Update: records affected: 1



GetName: 40267 HIMAWARI-8

Hit Count: updated at: Wed, 14 Nov 2018 10:49:11 GMT